Weather History for Jaffrey, NH

Change the Weather History Date:

Friday, March 8, 2013

  Actual Average Record
Temperature  
Mean Temperature 28 °F -  
Max Temperature 37 °F 34 °F 64 °F (2012)
Min Temperature 19 °F 17 °F -6 °F (2007)
Degree Days  
Heating Degree Days 37    
Moisture  
Dew Point 26 °F    
Average Humidity 87    
Maximum Humidity 96    
Minimum Humidity 62    
Precipitation  
Precipitation 0.36 in - - ()
Sea Level Pressure  
Sea Level Pressure 30.02 in    
Wind  
Wind Speed 6 mph (North)    
Max Wind Speed 12 mph    
Max Gust Speed 23 mph    
Visibility 3 miles    
Events Fog , Snow    
Averages and records for this station are not official NWS values.
T = Trace of Precipitation, MM = Missing Value Source: NWS Daily Summary

Daily Weather History Graph

Daily Weather History Graph

Search for Another Location

Airport:

Trip Planner

Search our weather history database for the weather conditions in past years. The results will help you decide how hot, cold, wet, or windy it might be!

Date:

Astronomy

Mar. 08, 2013 Rise Set
Actual Time 6:11 AM EST 5:46 PM EST
Civil Twilight 5:43 AM EST 6:14 PM EST
Nautical Twilight 5:10 AM EST 6:47 PM EST
Astronomical Twilight 4:37 AM EST 7:20 PM EST
Moon 3:58 AM EST (3/8) 2:34 PM EST (3/8)
Length of Visible Light 12h 31m
Length of Day
11h 34m
Waning Crescent, 12% of the Moon is Illuminated
Mar 8
Waning Crescent
Mar 11
New
Mar 19
First Quarter
Mar 27
Full
Apr 3
Last Quarter

Hourly Weather History & Observations

Time (EST) Temp. Windchill Dew Point Humidity Pressure Visibility Wind Dir Wind Speed Gust Speed Precip Events Conditions
12:10 AM 28.4 °F 22.2 °F 26.6 °F 93% 29.99 in 1.5 mi Variable 5.8 mph - 0.00 in Snow Light Snow
12:13 AM 28.4 °F 21.2 °F 26.6 °F 93% 29.99 in 1.2 mi North 6.9 mph - 0.00 in Snow Light Snow
12:16 AM 28.4 °F 20.4 °F 26.6 °F 93% 29.99 in 1.0 mi North 8.1 mph - 0.01 in Snow Light Snow
12:20 AM 28.4 °F 20.4 °F 26.6 °F 93% 29.99 in 0.8 mi North 8.1 mph - 0.01 in Snow Light Snow
12:27 AM 28.4 °F 23.3 °F 26.6 °F 93% 29.99 in 0.8 mi Variable 4.6 mph - 0.01 in Snow Light Snow
12:48 AM 28.4 °F 21.2 °F 26.6 °F 93% 29.99 in 1.0 mi Variable 6.9 mph 23.0 mph 0.03 in Snow Light Snow
1:03 AM 28.4 °F 19.7 °F 26.6 °F 93% 29.99 in 0.8 mi North 9.2 mph - 0.00 in Snow Light Snow
1:24 AM 28.4 °F 21.2 °F 26.6 °F 93% 29.98 in 1.0 mi Variable 6.9 mph - 0.01 in Snow Light Snow
1:37 AM 28.4 °F 19.1 °F 26.6 °F 93% 29.98 in 0.8 mi North 10.4 mph 17.3 mph 0.02 in Snow Light Snow
1:41 AM 28.4 °F 19.7 °F 26.6 °F 93% 29.98 in 1.0 mi North 9.2 mph 17.3 mph 0.02 in Snow Light Snow
1:49 AM 28.4 °F 21.2 °F 24.8 °F 86% 29.98 in 0.8 mi Variable 6.9 mph 18.4 mph 0.03 in Snow Light Snow
1:52 AM 28.0 °F 20.0 °F 26.1 °F 92% 30.03 in 0.8 mi North 8.1 mph 18.4 mph 0.03 in Snow Light Snow
2:07 AM 28.4 °F 20.4 °F 24.8 °F 86% 29.97 in 1.0 mi North 8.1 mph 20.7 mph 0.00 in Snow Light Snow
2:17 AM 28.4 °F 19.7 °F 24.8 °F 86% 29.96 in 1.0 mi North 9.2 mph 16.1 mph 0.01 in Snow Light Snow
2:20 AM 28.4 °F 20.4 °F 24.8 °F 86% 29.96 in 1.5 mi North 8.1 mph - 0.01 in Snow Light Snow
2:29 AM 28.4 °F 21.2 °F 24.8 °F 86% 29.95 in 2.0 mi Variable 6.9 mph 20.7 mph 0.01 in Snow Light Snow
2:35 AM 28.4 °F 21.2 °F 24.8 °F 86% 29.95 in 1.2 mi Variable 6.9 mph 20.7 mph 0.01 in Snow Light Snow
2:49 AM 28.4 °F 22.2 °F 24.8 °F 86% 29.95 in 1.0 mi Variable 5.8 mph 21.9 mph 0.02 in Snow Light Snow
2:52 AM 28.0 °F 21.7 °F 26.1 °F 92% 30.01 in 1.0 mi Variable 5.8 mph - 0.02 in Snow Light Snow
3:13 AM 28.4 °F 24.6 °F 26.6 °F 93% 29.95 in 1.2 mi Variable 3.5 mph - 0.01 in Snow Light Snow
3:34 AM 28.4 °F 22.2 °F 26.6 °F 93% 29.95 in 1.2 mi Variable 5.8 mph - 0.02 in Snow Light Snow
3:45 AM 28.4 °F 21.2 °F 26.6 °F 93% 29.95 in 1.2 mi North 6.9 mph - 0.03 in Snow Light Snow
3:52 AM 28.0 °F 22.8 °F 26.1 °F 92% 30.00 in 1.0 mi Variable 4.6 mph - 0.03 in Snow Light Snow
4:00 AM 28.4 °F 21.2 °F 26.6 °F 93% 29.95 in 0.8 mi North 6.9 mph - 0.01 in Snow Light Snow
4:22 AM 28.4 °F 21.2 °F 26.6 °F 93% 29.95 in 1.0 mi Variable 6.9 mph - 0.03 in Snow Light Snow
4:52 AM 28.0 °F 22.8 °F 27.0 °F 96% 29.99 in 0.8 mi Variable 4.6 mph - 0.05 in Snow Light Snow
5:08 AM 28.4 °F 23.3 °F 26.6 °F 93% 29.94 in 1.2 mi Variable 4.6 mph - 0.01 in Snow Light Snow
5:22 AM 28.4 °F 22.2 °F 26.6 °F 93% 29.94 in 1.0 mi Variable 5.8 mph - 0.02 in Snow Light Snow
5:44 AM 28.4 °F 22.2 °F 26.6 °F 93% 29.95 in 1.2 mi Variable 5.8 mph - 0.03 in Snow Light Snow
5:52 AM 28.0 °F 21.7 °F 26.1 °F 92% 30.00 in 0.8 mi Variable 5.8 mph - 0.03 in Snow Light Snow
6:47 AM 28.4 °F 22.2 °F 26.6 °F 93% 29.96 in 0.2 mi North 5.8 mph - 0.07 in Fog , Snow Heavy Snow
6:52 AM 28.0 °F 21.7 °F 26.1 °F 92% 30.02 in 0.2 mi Variable 5.8 mph - 0.08 in Fog , Snow Heavy Snow
7:01 AM 28.4 °F 21.2 °F 26.6 °F 93% 29.96 in 0.2 mi Variable 6.9 mph - 0.01 in Fog , Snow Heavy Snow
7:52 AM 28.0 °F 22.8 °F 26.1 °F 92% 30.03 in 0.5 mi Variable 4.6 mph - 0.07 in Fog , Snow Snow
8:52 AM 28.9 °F 23.9 °F 27.0 °F 92% 30.03 in 0.8 mi North 4.6 mph - 0.03 in Snow Light Snow
9:01 AM 28.4 °F 21.2 °F 26.6 °F 93% 29.98 in 1.0 mi NNE 6.9 mph - 0.01 in Snow Light Snow
9:08 AM 28.4 °F 22.2 °F 26.6 °F 93% 29.98 in 1.0 mi Variable 5.8 mph - 0.01 in Snow Light Snow
9:42 AM 30.2 °F 22.6 °F 26.6 °F 86% 29.98 in 1.2 mi North 8.1 mph - 0.02 in Snow Light Snow
9:46 AM 30.2 °F 25.4 °F 26.6 °F 86% 29.98 in 1.5 mi North 4.6 mph - 0.02 in Snow Light Snow
9:52 AM 30.0 °F 20.5 °F 27.0 °F 88% 30.03 in 2.0 mi North 11.5 mph 17.3 mph 0.02 in Snow Light Snow
10:03 AM 30.2 °F 23.4 °F 26.6 °F 86% 29.98 in 1.5 mi Variable 6.9 mph - 0.00 in Snow Light Snow
10:12 AM 30.2 °F 23.4 °F 26.6 °F 86% 29.98 in 1.2 mi Variable 6.9 mph - 0.00 in Snow Light Snow
10:19 AM 30.2 °F 24.3 °F 26.6 °F 86% 29.98 in 1.5 mi Variable 5.8 mph - 0.00 in Snow Light Snow
10:28 AM 30.2 °F 22.6 °F 26.6 °F 86% 29.98 in 1.2 mi North 8.1 mph - 0.00 in Snow Light Snow
10:33 AM 30.2 °F 22.6 °F 26.6 °F 86% 29.99 in 2.0 mi NNE 8.1 mph - 0.00 in Snow Light Snow
10:35 AM 30.2 °F 23.4 °F 26.6 °F 86% 29.99 in 3.0 mi North 6.9 mph - 0.00 in Snow Light Snow
10:52 AM 32.0 °F 24.8 °F 26.1 °F 79% 30.04 in 10.0 mi North 8.1 mph 16.1 mph 0.00 in   Overcast
11:52 AM 34.0 °F 29.8 °F 26.1 °F 73% 30.06 in 9.0 mi Variable 4.6 mph 16.1 mph 0.00 in   Overcast
12:52 PM 35.1 °F 29.3 °F 25.0 °F 67% 30.05 in 10.0 mi Variable 6.9 mph - N/A   Overcast
1:52 PM 36.0 °F 30.3 °F 25.0 °F 64% 30.06 in 10.0 mi North 6.9 mph - N/A   Overcast
2:52 PM 37.0 °F 33.3 °F 25.0 °F 62% 30.07 in 10.0 mi Variable 4.6 mph - N/A   Overcast
3:52 PM 37.0 °F 34.5 °F 25.0 °F 62% 30.09 in 10.0 mi Variable 3.5 mph - N/A   Scattered Clouds
4:52 PM 36.0 °F 33.3 °F 25.0 °F 64% 30.12 in 10.0 mi Variable 3.5 mph - N/A   Clear
5:52 PM 35.1 °F - 26.1 °F 70% 30.15 in 10.0 mi Calm Calm - N/A   Scattered Clouds
6:52 PM 30.9 °F - 27.0 °F 85% 30.17 in 10.0 mi Calm Calm - N/A   Clear
7:52 PM 28.9 °F - 26.1 °F 89% 30.19 in 10.0 mi Calm Calm - N/A   Clear
8:52 PM 26.1 °F - 24.1 °F 92% 30.21 in 10.0 mi Calm Calm - N/A   Clear
9:52 PM 24.1 °F - 21.9 °F 91% 30.22 in 10.0 mi Calm Calm - N/A   Clear
10:52 PM 19.9 °F - 18.0 °F 92% 30.22 in 10.0 mi Calm Calm - N/A   Clear
11:52 PM 21.0 °F - 19.9 °F 96% 30.22 in 10.0 mi Calm Calm - N/A   Clear